EW6950 Weather Reports


Display with metric or nautical units.
time (UTC)temp
F
wind
direction
speed
MPH
gust
MPH
rain 1hr
in
rain 24hr
in
rain mn
in
humidity
%
barometer
mb
20181121204602 35 49 3.0 7.0 0.00 0.02 0.02 90 1016.7
20181121203602 35 112 2.0 5.0 0.00 0.02 0.02 90 1016.6
20181121202603 35 93 3.0 7.0 0.00 0.02 0.02 89 1016.6
20181121201602 35 67 2.0 6.0 0.00 0.02 0.02 89 1016.5
20181121200602 35 67 3.0 6.0 0.00 0.02 0.02 89 1016.6
20181121195601 35 94 3.0 7.0 0.00 0.02 0.02 89 1016.5
20181121194602 35 69 3.0 7.0 0.00 0.02 0.02 89 1016.5
20181121193602 35 100 3.0 6.0 0.00 0.02 0.02 89 1016.4
20181121192602 35 44 3.0 7.0 0.00 0.02 0.02 89 1016.3
20181121191602 35 54 3.0 9.0 0.00 0.02 0.02 89 1016.2
20181121190602 36 35 4.0 11.0 0.00 0.02 0.02 89 1016.1
20181121185602 36 72 3.0 7.0 0.00 0.02 0.02 89 1016.1
20181121184602 36 103 4.0 10.0 0.00 0.02 0.02 88 1016.1
20181121183602 36 78 2.0 5.0 0.00 0.02 0.02 89 1016.1
20181121182601 36 70 4.0 9.0 0.00 0.02 0.02 88 1016.0
20181121181601 36 75 3.0 8.0 0.00 0.02 0.02 88 1015.9
20181121180602 36 52 2.0 5.0 0.00 0.02 0.02 88 1015.8
20181121175602 36 5 2.0 6.0 0.00 0.02 0.02 88 1015.8
20181121174602 36 57 3.0 8.0 0.00 0.02 0.02 88 1015.7
20181121173603 36 33 3.0 8.0 0.00 0.02 0.02 88 1015.6
20181121172602 36 73 3.0 10.0 0.00 0.02 0.02 88 1015.5
20181121171602 36 60 3.0 8.0 0.00 0.02 0.02 87 1015.5
20181121170601 36 44 3.0 7.0 0.00 0.02 0.02 87 1015.5
20181121165602 36 50 3.0 5.0 0.00 0.02 0.02 87 1015.2
20181121164602 37 57 3.0 6.0 0.00 0.02 0.02 87 1015.1
20181121163601 37 46 3.0 6.0 0.00 0.02 0.02 86 1015.0
20181121162602 37 53 2.0 6.0 0.00 0.02 0.02 86 1014.8
20181121161602 38 38 1.0 3.0 0.00 0.02 0.02 86 1014.7
20181121160601 38 38 1.0 3.0 0.00 0.02 0.02 86 1014.6
20181121155602 38 30 2.0 3.0 0.00 0.02 0.02 85 1014.5
20181121154602 39 36 2.0 4.0 0.00 0.02 0.02 85 1014.5
20181121153602 39 31 2.0 6.0 0.00 0.02 0.02 84 1014.5
20181121152601 39 65 2.0 4.0 0.00 0.02 0.02 84 1014.5
20181121151601 39 84 3.0 5.0 0.00 0.02 0.02 84 1014.4
20181121150602 39 49 2.0 5.0 0.00 0.02 0.02 84 1014.2
20181121145602 40 84 3.0 8.0 0.00 0.02 0.02 85 1014.0
20181121144603 40 0 3.0 6.0 0.00 0.02 0.02 85 1013.8
20181121143602 40 66 3.0 6.0 0.00 0.02 0.02 84 1013.6
20181121142602 40 64 2.0 7.0 0.00 0.02 0.02 84 1013.7
20181121141602 40 50 3.0 4.0 0.00 0.02 0.02 84 1013.6
20181121140601 40 36 3.0 6.0 0.00 0.02 0.02 84 1013.4
20181121135602 40 49 3.0 10.0 0.00 0.02 0.02 85 1013.2
20181121134602 40 57 2.0 5.0 0.00 0.02 0.02 85 1013.2
20181121133602 40 9 3.0 6.0 0.00 0.02 0.02 85 1013.2
20181121132602 40 55 3.0 5.0 0.00 0.02 0.02 86 1013.1
20181121131602 40 22 2.0 6.0 0.00 0.02 0.02 86 1013.1
20181121130602 40 44 3.0 7.0 0.00 0.02 0.02 86 1013.1
20181121125602 39 24 3.0 6.0 0.00 0.02 0.02 87 1013.0
20181121124602 39 32 3.0 6.0 0.00 0.02 0.02 87 1013.2
20181121123602 39 335 3.0 6.0 0.00 0.02 0.02 88 1013.1
20181121122601 39 9 3.0 6.0 0.00 0.02 0.02 88 1013.3
20181121121602 39 5 2.0 4.0 0.00 0.02 0.02 88 1013.4
20181121120602 39 5 2.0 4.0 0.00 0.02 0.02 89 1013.6
20181121115602 39 54 1.0 3.0 0.00 0.02 0.02 89 1013.7
20181121114602 39 19 1.0 4.0 0.00 0.02 0.02 89 1013.7
20181121113603 38 36 1.0 3.0 0.00 0.02 0.02 89 1013.7
20181121112602 38 53 3.0 6.0 0.00 0.02 0.02 89 1013.6
20181121111602 38 32 2.0 4.0 0.00 0.02 0.02 89 1013.5
20181121110602 38 55 2.0 4.0 0.00 0.02 0.02 89 1013.4
20181121105601 38 342 3.0 5.0 0.00 0.02 0.02 90 1013.3
20181121104601 38 15 2.0 5.0 0.00 0.02 0.02 90 1013.3
20181121103602 38 39 2.0 5.0 0.00 0.02 0.02 91 1013.3
20181121102602 37 9 3.0 5.0 0.00 0.02 0.02 91 1013.4
20181121101602 37 44 2.0 5.0 0.00 0.02 0.02 92 1013.4
20181121100601 37 57 3.0 9.0 0.00 0.02 0.02 92 1013.2
20181121095601 37 44 3.0 6.0 0.00 0.02 0.02 93 1013.1
20181121094601 36 61 1.0 4.0 0.00 0.02 0.02 93 1013.3
20181121093602 36 71 1.0 3.0 0.00 0.02 0.02 94 1013.2
20181121092602 36 46 2.0 5.0 0.00 0.02 0.02 94 1013.1
20181121091601 36 52 1.0 4.0 0.00 0.02 0.02 94 1013.0
20181121090602 36 57 1.0 4.0 0.00 0.02 0.02 94 1012.7
20181121085602 35 30 2.0 4.0 0.00 0.02 0.02 94 1012.5
20181121084603 35 22 1.0 3.0 0.00 0.02 0.02 94 1012.6
20181121083602 35 41 1.0 3.0 0.00 0.02 0.02 95 1012.5
20181121082602 34 5 1.0 3.0 0.00 0.02 0.02 94 1012.4
20181121081602 34 32 1.0 2.0 0.00 0.02 0.02 94 1012.3
20181121080602 33 32 1.0 2.0 0.00 0.02 0.02 94 1011.9
20181121075601 33 34 0.0 2.0 0.00 0.02 0.02 94 1011.9
20181121074601 33 33 0.0 1.0 0.00 0.02 0.02 93 1011.8
20181121073603 33 33 1.0 3.0 0.00 0.02 0.02 93 1011.7
20181121072602 33 33 1.0 2.0 0.00 0.02 0.02 93 1011.4
20181121071602 33 34 0.0 3.0 0.00 0.02 0.02 93 1011.3
20181121070603 33 36 1.0 3.0 0.00 0.02 0.02 93 1011.2
20181121065602 34 36 0.0 2.0 0.00 0.02 0.02 93 1011.0
20181121054601 36 28 1.0 2.0 0.00 0.02 0.02 92 1010.4
20181121053602 36 21 0.0 1.0 0.00 0.02 0.02 92 1010.1
20181121052602 36 21 0.0 2.0 0.00 0.02 0.02 93 1010.1
20181121051602 36 95 0.0 3.0 0.00 0.02 0.02 93 1009.9
20181121050602 36 98 0.0 2.0 0.01 0.02 0.02 93 1009.9
20181121045603 36 98 1.0 3.0 0.01 0.02 0.02 92 1009.9
20181121044602 36 109 0.0 2.0 0.01 0.02 0.02 92 1009.7
20181121043603 36 109 0.0 2.0 0.01 0.02 0.02 92 1009.7
20181121042603 36 109 0.0 2.0 0.01 0.02 0.02 92 1009.5
20181121041602 36 109 0.0 2.0 0.01 0.02 0.02 92 1009.5
20181121040601 36 109 0.0 2.0 0.00 0.02 0.01 91 1009.5
20181121035602 36 109 0.0 0.0 0.00 0.02 0.01 91 1009.6
20181121034602 36 109 0.0 0.0 0.00 0.02 0.01 91 1009.5
20181121033602 36 109 0.0 2.0 0.00 0.02 0.01 91 1009.2
20181121032603 37 109 0.0 2.0 0.00 0.02 0.01 90 1009.2
20181121031602 37 109 1.0 2.0 0.00 0.02 0.01 90 1009.1
20181121030601 37 109 0.0 2.0 0.00 0.02 0.01 90 1009.0
20181121025602 37 109 0.0 1.0 0.00 0.02 0.01 90 1008.8
20181121024603 37 109 1.0 3.0 0.00 0.02 0.01 90 1008.5
20181121023602 37 101 2.0 6.0 0.01 0.02 0.01 90 1008.4
20181121022602 37 68 2.0 6.0 0.01 0.02 0.01 90 1008.2
20181121021601 37 84 3.0 8.0 0.01 0.02 0.01 90 1008.3
20181121020601 37 124 3.0 9.0 0.01 0.02 0.01 90 1008.2
20181121015601 37 80 3.0 7.0 0.01 0.02 0.01 89 1008.2
20181121014601 37 54 3.0 6.0 0.01 0.02 0.01 89 1008.1
20181121013602 37 110 3.0 6.0 0.00 0.01 0.00 89 1008.1
20181121012603 37 85 2.0 4.0 0.00 0.01 0.00 89 1008.1
20181121011603 37 76 2.0 7.0 0.00 0.01 0.00 89 1008.1
20181121010602 37 103 4.0 8.0 0.00 0.01 0.00 89 1008.0
20181121005601 37 115 3.0 7.0 0.00 0.01 0.00 89 1007.9
20181121004602 37 87 4.0 9.0 0.00 0.01 0.00 90 1007.6
20181121003601 37 59 3.0 7.0 0.00 0.01 0.00 90 1007.6
20181121002602 37 113 2.0 6.0 0.00 0.01 0.00 90 1007.6
20181121001602 37 103 0.0 3.0 0.00 0.01 0.00 90 1007.4
20181121000603 37 120 2.0 4.0 0.00 0.01 0.00 91 1007.2
20181120235602 37 106 2.0 4.0 0.00 0.01 0.00 90 1007.0
20181120234602 37 109 2.0 4.0 0.00 0.01 0.00 90 1006.6
20181120233602 37 65 1.0 4.0 0.01 0.01 0.00 91 1006.7
20181120232601 37 73 2.0 4.0 0.01 0.01 0.00 91 1006.7
20181120231602 37 82 2.0 4.0 0.01 0.01 0.00 91 1006.8
20181120230603 37 53 3.0 9.0 0.01 0.01 0.00 91 1006.5
20181120225602 37 92 3.0 8.0 0.01 0.01 0.01 91 1006.3
20181120224602 37 69 3.0 6.0 0.01 0.01 0.01 90 1006.3
20181120223602 37 142 4.0 9.0 0.00 0.00 0.00 90 1006.2
20181120222602 37 60 4.0 9.0 0.00 0.00 0.00 90 1006.2
20181120221602 37 73 4.0 10.0 0.00 0.00 0.00 90 1006.2
20181120220602 37 87 3.0 7.0 0.00 0.00 0.00 89 1006.3
20181120215603 37 116 5.0 9.0 0.00 0.00 0.00 89 1006.4
20181120214602 37 111 4.0 9.0 0.00 0.00 0.00 88 1006.4
20181120213602 37 82 4.0 12.0 0.00 0.00 0.00 87 1006.4
20181120212603 37 109 5.0 10.0 0.00 0.00 0.00 86 1006.3
20181120211602 38 119 5.0 11.0 0.00 0.00 0.00 85 1006.1
20181120210602 38 87 5.0 10.0 0.00 0.00 0.00 84 1006.1
20181120205602 38 59 6.0 14.0 0.00 0.00 0.00 83 1005.9